www.pogodaiklimat.ru

Погода и климат >> Архив погоды >> Монголия >> Байтаг


ПОГОДА в Байтаге

  • Прогноз погоды в Байтаге
  • Монитор погоды в Байтаге

АРХИВ ПОГОДЫ в Байтаге

Время (UTC), дата Ветер
(напр.,м/с)
 
Видим.   Явления Облачность Т
(С)
Тd
(С)
f
(%)
Тe
(С)
Тes
(С)
Комфортность P
(гПа)
Po
(гПа)
Тmin
(С)
Tmax
(С)
R
(мм)
R24
(мм)
S
(см)
18 18.06 С 1 н/о 3/0
[Ci fib]
+14.3 +5.5 55 +15 +15 1009.4 876.8
21 18.06 С 2 н/о 1/0
[Ci fib]
+14.6 +3.4 47 +14 +14 1009.0 876.5
00 19.06 штиль 0 50 км 3/0
[Ci fib]
+16.1 +6.1 51 +16 +19 1009.8 877.7 +9.8
03 19.06 ЮЗ 1 50 км ясно +22.5 +4.2 30 +23 +37 комфорт 1006.8 877.8
06 19.06 ЮВ 1 50 км 3/0
[Ac cast Ci]
+27.8 +1.3 18 +26 +46 жарко 1002.6 876.3
09 19.06 З 6 50 км 3/1 1000 м
[Cu hum Ac cast Ci fib]
+30.1 +2.4 17 +28 +31 жарко 999.9 874.8
12 19.06 ЮЗ 5
{13}
50 км 5/0
[Ci]
+27.7 +3.7 21 +26 +27 жарко 1001.2 875.1 +30.9
15 19.06 З 2 н/о 8/0
[Ac trans Cs]
+23.0 +3.5 28 +23 +23 комфорт 1004.7 876.2
18 19.06 штиль 0 н/о 4/0
[Ci]
+15.1 +7.2 59 +15 +15 1009.1 876.8
21 19.06 В 2 н/о ясно +13.3 +6.4 63 +13 +13 1010.4 877.2
00 20.06 СВ 2 50 км ясно +17.5 +8.3 55 +18 +20 1009.8 878.4 +12.5
03 20.06 Ю 2 50 км 1/0
[Ci fib]
+25.4 +5.1 27 +25 +37 комфорт 1006.1 878.4
06 20.06 З 2 50 км 4/1 1000 м
[Cu hum Ci sp]
+29.9 +3.2 18 +28 +44 жарко 1003.4 877.9
09 20.06 З 4 50 км 5/1 1000 м
[Cu hum Ci]
+30.7 +4.1 19 +29 +35 жарко 1001.7 876.7
12 20.06 З 5 50 км 9/3 1000 м
[Cu med, cong Cs]
+27.7 +5.3 24 +27 +27 жарко 1003.5 877.1 +31.5
15 20.06 З 3 н/о 9/0
[Ac trans Cs]
+23.1 +7.4 36 +24 +24 комфорт 1007.4 878.7
18 20.06 З 3 н/о 9/0
[Ac cast Cs]
+19.3 +8.2 49 +20 +20 1009.9 879.3
21 20.06 З 3 н/о 6/0
[Ac lent Ci]
+17.4 +8.4 55 +17 +17 1010.9 879.3
00 21.06 З 2 50 км 8/0
[Ac lent Ci]
+19.0 +9.1 53 +20 +22 1011.4 880.4 +16.5
03 21.06 ЮЗ 2 50 км 8/0
[Ac trans Cs]
+23.0 +9.4 42 +25 +34 комфорт 1009.7 880.6
06 21.06 З 3 50 км 9/0
[As trans]
+23.4 +9.0 40 +25 +32 комфорт 1009.1 880.3
09 21.06 ЮЗ 2 50 км 9/3 1000 м
[Cu med, cong Ac trans Cs]
+26.3 +3.0 22 +25 +30 комфорт 1006.7 879.3
12 21.06 штиль 0 50 км 9/0
[Ac cast Cs]
+25.8 +3.6 24 +25 +27 комфорт 1005.4 878.0 +26.6
15 21.06 З 1 н/о 9/0
[Ac lent Cs]
+21.5 +3.7 31 +22 +22 комфорт 1007.8 878.4
18 21.06 штиль 0 н/о 6/0
[Ac lent Ci]
+17.3 +6.2 48 +17 +17 1009.9 878.4
21 21.06 СВ 2 н/о 3/1 1000 м
[Cu Sc Ci fib]
+14.8 +5.0 52 +15 +15 1011.2 878.4
00 22.06 СВ 2 50 км 4/1 1000 м
[Cu Sc Ci fib]
+17.7 +6.3 47 +18 +20 1010.4 879.0 +11.7
03 22.06 З 1 50 км 4/0
[Ci]
+23.5 +5.1 30 +23 +37 комфорт 1007.4 878.8
06 22.06 ЮЗ 4 50 км 3/0
[Ac lent Ci fib]
+28.9 -2.6 13 +26 +37 жарко 1003.1 877.2
09 22.06 ЮЗ 5 50 км 6/1 1000 м
[Cu hum Cs]
+30.4 0.0 14 +27 +32 жарко 1000.3 875.4
12 22.06 ЮЗ 5 50 км 9/0
[Cs]
+27.3 +3.2 21 +26 +26 жарко 1001.6 875.3 +30.7
15 22.06 З 3 н/о 8/0
[Cs]
+24.2 +1.1 22 +23 +23 комфорт 1004.0 876.1
18 22.06 штиль 0 н/о 8/0
[Cs]
+20.1 +2.5 31 +20 +20 1005.9 876.1
21 22.06 СВ 1 н/о 4/0
[Ci fib]
+16.4 +5.2 47 +17 +17 1007.3 875.7
00 23.06 СВ 1 50 км 9/0
[Ac lent Cs]
+18.8 +6.6 45 +20 +22 1007.0 876.6 +15.2
03 23.06 З 1 50 км 6/0
[Ac lent Ci]
+24.1 +4.4 28 +24 +34 комфорт 1004.8 876.8
06 23.06 З 5 50 км 4/3 1000 м
[Cu hum Ac lent Ci fib]
+29.6 +5.0 21 +28 +34 жарко 1000.4 875.1
09 23.06 З 6
{13}
50 км 9/3 1000 м
[Cu med, cong Ac trans Cs]
+29.7 +5.8 22 +28 +30 жарко 999.7 874.5
12 23.06 З 7
{15}
50 км 9/1 1000 м
[Cu hum Ac lent Cs]
+26.7 +5.5 26 +26 +26 жарко 1001.6 875.0 +30.2
15 23.06 З 4
{11}
н/о 8/0
[Ac lent Cs]
+23.0 +6.6 35 +24 +24 комфорт 1005.2 876.7
18 23.06 З 4 н/о 10/0
[As op]
+21.1 +7.3 41 +22 +22 комфорт 1006.9 877.3
21 23.06 З 5 н/о 9/4 1000 м
[Cu Sc Cs]
+18.3 +7.9 51 +18 +18 1008.3 877.4
00 24.06 З 4
{11}
50 км 9/3 1000 м
[Cu Sc Cs]
+17.6 +7.9 53 +17 +18 1010.3 878.9 +17.4
03 24.06 З 5 50 км 9/1 1000 м
[Cu hum Cs]
+18.6 +7.8 49 +19 +24 1010.7 879.7
06 24.06 З 7-13
{14}
50 км 3/3 1000 м
[Cu med, cong]
+23.8 +3.3 26 +23 +27 комфорт 1007.3 878.8
09 24.06 З 7-14
{15}
50 км 3/3 1000 м
[Cu med, cong]
+24.0 +2.4 24 +23 +25 комфорт 1006.8 878.5
12 24.06 З 6-12
{15}
50 км 4/3 1000 м
[Cu med, cong Ac lent Ci]
+21.3 +3.4 31 +21 +22 комфорт 1008.9 879.3 +24.8
15 24.06 З 5
{13}
н/о 1/0
[Ac lent]
+17.9 +0.7 31 +18 +18 1012.2 880.6
18 24.06 З 3 н/о 1/0
[Ci fib]
+13.9 +1.0 41 +13 +13 1014.5 880.9
21 24.06 ЮЗ 2 н/о 8/0
[Ac As]
+14.6 -0.3 36 +15 +15 1013.1 880.0
00 25.06 СЗ 3 50 км 10/10 1000 м
[Sc]
+15.0 +3.2 45 +14 +14 1013.7 880.7 +12.5
03 25.06 ЮЗ 3 50 км 8/8 1000 м
[Cu Sc]
+14.2 +4.8 53 +13 +16 1014.3 880.9
06 25.06 ЮЗ 6 50 км 5/5 1000 м
[Cu med, cong]
+19.2 +3.9 36 +19 +23 1010.4 879.6
09 25.06 З 6
{12}
50 км 4/3 1000 м
[Cu med, cong Ci fib]
+22.4 +1.6 25 +22 +25 комфорт 1007.1 878.1
12 25.06 З 6
{13}
50 км 1/1 1000 м
[Cu hum]
+20.7 +1.1 27 +21 +21 комфорт 1007.7 877.9 +22.4
15 25.06 З 6
{12}
н/о ясно +17.0 +0.3 32 +16 +16 1010.5 878.9

 

Местоположение метеостанции Байтаг (Монголия): широта 46.12 долгота 91.47 высота над уровнем моря 1186 м.

В архиве по умолчанию представлена погода в Байтаге за последнюю неделю. Архивные данные за месяц целиком и за предыдущие месяцы, начиная с января 2011 года, Вы можете получить, выбрав интересующий диапазон дат из раскрывающегося списка и нажав кнопку "Ввод!".


*Определитесь, кто Вы:
робот инопланетянин человек

Внимание! Время в таблицах - всемирное. Для получения местного времени необходимо прибавить поправку, которая равна 8 ч.

Смотрите также архив погоды в соседних городах и на ближайших метеорологических станциях:

Погода в Жаргаланте (Монголия) (94 км)
Погода в Бейта Шан (Синьцзян-Уйгурский автономный район, Китай) (111 км)
Погода в Фуюне (Синьцзян-Уйгурский автономный район, Китай) (177 км)
Погода в Тонхиле (Монголия) (188 км)
Погода в Ховде (Монголия) (211 км)
Погода в Толбо (Монголия) (271 км)
Погода в Цитае (Синьцзян-Уйгурский автономный район, Китай) (277 км)
Погода в Алтае (Синьцзян-Уйгурский автономный район, Китай) (314 км)
Погода в Умнегове (Монголия) (323 км)
Погода в Цзяньфане (Синьцзян-Уйгурский автономный район, Китай) (323 км)

Пояснения к столбцам:

Ветер - указаны скорость ветра в м/с - средняя за 10 мин, порывы в срок и между сроками (в фигурных скобках) и направление, откуда дует ветер: С - северный, СВ - северо-восточный, В - восточный, ЮВ - юго-восточный, Ю - южный, ЮЗ - юго-западный, З - западный, СЗ - северо-западный.
Видимость - горизонтальная дальность видимости в метрах или километрах. При видимости от 1 до 10 км при отсутствии осадков обычно наблюдается дымка, при ухудшении видимости до 1 км и менее - туман. В сухую погоду видимость может ухудшаться дымом, пылью или мглою.
Явления - указаны атмосферные явления, наблюдавшиеся в срок или в последний час перед сроком; фигурными скобками обозначены явления, наблюдавшиеся между сроками (за 1-3 часа до срока); квадратными скобками обозначены град или гололедные отложения с указанием их диаметра в мм.
Облачность - указаны через наклонную черту общая и нижняя облачность в баллах и высота нижней границы облаков в метрах; квадратными скобками обозначены формы облаков: Ci - перистые, Cs - перисто-слоистые, Cc - перисто-кучевые, Ac - высококучевые, As - высокослоистые, Sc - слоисто-кучевые, Ns - слоисто-дождевые, Cu - кучевые, Cb - кучево-дождевые. Подробнее классификацию облаков см. в Атласе облаков (PDF).
T - Температура воздуха - температура, измеренная на высоте 2 м над землей.
Td - Температура точки росы - температура, при понижении до которой содержащийся в воздухе водяной пар достигнет насыщения.
f - Относительная влажность воздуха - влажноcть воздуха, измеренная на высоте 2 м над землей.
Te - Эффективная температура - температура, которую ощущает одетый по сезону человек в тени. Характеристика душности погоды. При расчете учитывается влияние влажности воздуха и скорости ветра на теплоощущения человека.
Tes - Эффективная температура на солнце - температура, которую ощущает человек, с поправкой на солнечный нагрев. Характеристика знойности погоды. Зависит от высоты солнца над горизонтом, облачности и скорости ветра. Ночью, в пасмурную погоду, а также при ветре 12 м/с и более поправка равна нулю.
P - Атмосферное давление - приведенное к уровню моря атмосферное давление.
Po - Атмосферное давление - измеренное на уровне метеостанции атмосферное давление.
Tmin - Минимальная температура - минимум температуры воздуха на высоте 2 м над землей.
Tmax - Максимальная температура - максимум температуры воздуха на высоте 2 м над землей.
R - Количество осадков - Количество выпавших осадков за период времени, мм. При наведении курсора мыши на число - период времени, за который выпало указанное количество осадков.
R24 - Количество осадков - Количество выпавших осадков за 24 часа, мм.
S - Снежный покров - Высота снежного покрова, см. При наведении курсора мыши на число - состояние снежного покрова и степень покрытия местности в баллах.